Regional Weather Roundup
Issued by NWS State College, PA

Home | Current Version | Previous Version | Graphics & Text | Print | Product List | Glossary On
Versions: 1 2 3 4 5 6 7 8 9 10 11 12 13 14 15 16 17 18 19 20 21 22 23 24 25 26 27 28 29 30 31 32 33 34 35 36 37 38 39 40 41 42 43 44 45 46 47 48 49 50
224
ASUS41 KCTP 131103
RWRCTP

REGIONAL WEATHER ROUNDUP
NATIONAL WEATHER SERVICE STATE COLLEGE PA
600 AM EST WED DEC 13 2017

Note: "fair" indicates few or no clouds below 12,000 feet with no
significant weather and/or obstructions to visibility.

* = STATION THAT DOES NOT REPORT PRECIPITATION /E.G. RAIN...SNOW...ETC/
    THUNDER OR FOG.

PAZ002>004-007>009-013>016-020>023-029>032-131200-
WESTERN PENNSYLVANIA

CITY           SKY/WX    TMP DP  RH WIND       PRES   REMARKS
ERIE           CLOUDY    21  10  62 W16G25    29.76R WCI   7
MEADVILLE      FLURRIES  14   8  77 W13G22    29.74R WCI   0
FRANKLIN*      FLURRIES  13   9  84 W9        29.73R WCI   1
NEW CASTLE     FLURRIES  14  10  84 SW8       29.82R WCI   3
BEAVER COUNTY  NOT AVBL
BUTLER*        CLOUDY    12   7  80 W9        29.80R WCI   0
PITTSBURGH INT CLOUDY    17   4  56 W10       29.81R WCI   5
PITTSBURGH     MOCLDY    14   2  58 W15G25    29.80R WCI  -1
INDIANA*       MOCLDY    14   9  79 W14G24    29.78R WCI  -1
LATROBE        MOCLDY    14   5  67 SW12      29.82R WCI   0
WASHINGTON CO* MOCLDY    14   4  64 W12       29.87R WCI   0
$$

PAZ004>006-010>012-017>019-024>028-033>037-041-042-045-046-049>053-131200-
CENTRAL PENNSYLVANIA

CITY           SKY/WX    TMP DP  RH WIND       PRES   REMARKS
BRADFORD       LGT SNOW  13   9  84 W17G26    29.57R VSB 1   WCI  -4
DUBOIS         LGT SNOW  12   6  77 W16G28    29.64R WCI  -5
CLEARFIELD     LGT SNOW  14   7  73 W10G28    29.65R WCI   1
JOHNSTOWN      MIX PCPN  10   4  76 W15G26    29.65R WCI  -7
ALTOONA        CLOUDY    16   5  62 W16G28    29.69R WCI   1
STATE COLLEGE  CLOUDY    16   5  62 W17G29    29.66R WCI   0
WILLIAMSPORT   CLOUDY    21   7  54 W15G24    29.61R WCI   8
SELINSGROVE    MOCLDY    20   6  55 W10G23    29.65S WCI   9
FT INDIANTOWN  MOCLDY    20   4  49 W20G31    29.64R WCI   4
CAPITAL CITY   CLOUDY    22   2  42 W14G23    29.69R WCI   9
HARRISBURG     MOCLDY    22   7  52 W20G30    29.68R WCI   7
YORK           CLEAR     19   5  54 W13G20    29.70R WCI   6
$$

PAZ038>040-043-044-047-048-054-055-060>062-067>071-131200-
EASTERN PENNSYLVANIA

CITY           SKY/WX    TMP DP  RH WIND       PRES   REMARKS
SCRANTON       CLOUDY    16   8  71 W10       29.52R WCI   4
MOUNT POCONO   MIX PCPN  10   5  80 W21G33    29.39F WCI  -9
ALLENTOWN      PTCLDY    20   5  52 W21G30    29.58S WCI   4
QUAKERTOWN*    MOSUNNY   18   5  57 W9G21     29.58F WCI   6
READING        CLOUDY    21   7  54 W21G33    29.62F WCI   5
LANCASTER      CLOUDY    20   5  52 W21G33    29.66R WCI   4
COATESVILLE    MOSUNNY   19   5  53 W17G29    29.64R WCI   4
POTTSTOWN      PTCLDY    18   3  52 W13G22    29.63S WCI   5
BLUE BELL      PTCLDY    19   5  53 W8G17     29.63S WCI   9
DOYLESTOWN     PTCLDY    18   3  52 W13G29    29.58S WCI   5
WILLOW GROVE   NOT AVBL
NORTH PHILA    CLEAR     21   4  47 W17G24    29.64S WCI   7
PHILADELPHIA   PTCLDY    21   2  43 W17G26    29.67R WCI   7
$$




USA.gov is the U.S. government's official web portal to all federal, state and local government web resources and services.